IR4UCA-3 Weather Reports


time (UTC)temp
F
wind
direction
speed
knots
gust
knots
rain 1hr
in
rain 24hr
in
rain mn
in
humidity
%
barometer
mb
20260902044337 71 179 2.6 8.7 0.00 0.00 0.00 69 1017.7
20260902044140 71 203 3.5 9.6 0.00 0.00 0.00 69 1017.7
20260902043936 72 244 3.5 9.6 0.00 0.00 0.00 69 1017.7
20260902043738 72 233 4.3 9.6 0.00 0.00 0.00 70 1017.7
20260902043535 72 185 3.5 9.6 0.00 0.00 0.00 70 1017.7
20260902043335 72 228 4.3 9.6 0.00 0.00 0.00 69 1017.6
20260902043140 72 219 3.5 8.7 0.00 0.00 0.00 69 1017.6
20260902042935 72 166 4.3 8.7 0.00 0.00 0.00 69 1017.5
20260902042735 72 155 4.3 8.7 0.00 0.00 0.00 69 1017.6
20260902042538 72 207 4.3 8.7 0.00 0.00 0.00 70 1017.5
20260902042342 72 226 3.5 10.4 0.00 0.00 0.00 69 1017.4
20260902042144 72 195 3.5 10.4 0.00 0.00 0.00 69 1017.5
20260902041938 72 231 4.3 10.4 0.00 0.00 0.00 69 1017.4
20260902041736 72 188 4.3 11.3 0.00 0.00 0.00 69 1017.4
20260902041535 72 210 5.2 11.3 0.00 0.00 0.00 69 1017.5
20260902041336 72 147 5.2 11.3 0.00 0.00 0.00 68 1017.4
20260902041138 72 209 3.5 11.3 0.00 0.00 0.00 68 1017.5
20260902040933 72 168 5.2 11.3 0.00 0.00 0.00 68 1017.4
20260902040732 72 210 5.2 10.4 0.00 0.00 0.00 69 1017.4
20260902040531 72 189 4.3 10.4 0.00 0.00 0.00 69 1017.3
20260902040330 72 202 6.1 10.4 0.00 0.00 0.00 69 1017.3
20260902040129 72 203 3.5 10.4 0.00 0.00 0.00 69 1017.3
20260902035929 72 217 3.5 10.4 0.00 0.00 0.00 69 1017.3
20260902035728 72 214 3.5 10.4 0.00 0.00 0.00 69 1017.4
20260902035529 72 207 4.3 9.6 0.00 0.00 0.00 69 1017.3
20260902035329 72 223 2.6 9.6 0.00 0.00 0.00 69 1017.3
20260902035130 72 197 4.3 9.6 0.00 0.00 0.00 69 1017.3
20260902034929 72 244 3.5 7.8 0.00 0.00 0.00 69 1017.3
20260902034729 72 244 3.5 7.8 0.00 0.00 0.00 70 1017.4
20260902034530 72 172 2.6 6.1 0.00 0.00 0.00 70 1017.3
20260902034330 72 213 1.7 7.8 0.00 0.00 0.00 69 1017.3
20260902034131 72 213 2.6 8.7 0.00 0.00 0.00 69 1017.4
20260902033936 72 207 2.6 8.7 0.00 0.00 0.00 70 1017.4
20260902033734 72 192 4.3 8.7 0.00 0.00 0.00 70 1017.4
20260902033532 72 210 4.3 8.7 0.00 0.00 0.00 70 1017.5
20260902033329 72 134 5.2 8.7 0.00 0.00 0.00 70 1017.4
20260902033129 72 243 3.5 7.8 0.00 0.00 0.00 70 1017.5
20260902032927 72 197 3.5 7.8 0.00 0.00 0.00 70 1017.5
20260902032727 72 202 1.7 5.2 0.00 0.00 0.00 69 1017.4
20260902032526 72 176 2.6 5.2 0.00 0.00 0.00 70 1017.5
20260902032323 72 251 0.9 4.3 0.00 0.00 0.00 70 1017.5
20260902032125 72 190 1.7 4.3 0.00 0.00 0.00 70 1017.5
20260902031924 72 212 2.6 4.3 0.00 0.00 0.00 70 1017.4
20260902031724 72 196 1.7 4.3 0.00 0.00 0.00 70 1017.6
20260902031522 72 223 1.7 5.2 0.00 0.00 0.00 70 1017.5
20260902031325 72 212 2.6 5.2 0.00 0.00 0.00 70 1017.5
20260902031124 72 176 1.7 5.2 0.00 0.00 0.00 70 1017.5
20260902030922 72 169 1.7 5.2 0.00 0.00 0.00 70 1017.5
20260902030720 72 179 3.5 5.2 0.00 0.00 0.00 70 1017.5
20260902030520 72 214 2.6 4.3 0.00 0.00 0.00 70 1017.4
20260902030320 72 204 1.7 4.3 0.00 0.00 0.00 70 1017.4
20260902030125 72 212 1.7 3.5 0.00 0.00 0.00 70 1017.5
20260902025921 73 216 1.7 3.5 0.00 0.00 0.00 69 1017.5
20260902025714 73 210 0.9 3.5 0.00 0.00 0.00 69 1017.5
20260902025520 73 217 0.9 3.5 0.00 0.00 0.00 69 1017.4
20260902025310 73 217 0.9 3.5 0.00 0.00 0.00 69 1017.4
20260902025109 73 217 1.7 3.5 0.00 0.00 0.00 69 1017.3
20260902024903 73 217 0.9 3.5 0.00 0.00 0.00 69 1017.5
20260902024704 73 217 0.9 3.5 0.00 0.00 0.00 68 1017.4
20260902024521 73 217 0.9 3.5 0.00 0.00 0.00 68 1017.4
20260902024308 73 217 0.9 4.3 0.00 0.00 0.00 68 1017.4
20260902024114 73 217 1.7 4.3 0.00 0.00 0.00 68 1017.4
20260902023910 73 193 1.7 4.3 0.00 0.00 0.00 68 1017.4
20260902023710 73 202 0.9 4.3 0.00 0.00 0.00 68 1017.4
20260902023501 73 209 1.7 4.3 0.00 0.00 0.00 68 1017.4
20260902023301 73 216 1.7 4.3 0.00 0.00 0.00 68 1017.4
20260902023100 73 233 2.6 4.3 0.00 0.00 0.00 68 1017.4
20260902022901 73 217 2.6 4.3 0.00 0.00 0.00 68 1017.4
20260902022700 73 202 3.5 3.5 0.00 0.00 0.00 68 1017.3
20260902022458 73 186 2.6 3.5 0.00 0.00 0.00 68 1017.4
20260902022259 73 216 2.6 5.2 0.00 0.00 0.00 68 1017.4
20260902022057 73 220 0.9 5.2 0.00 0.00 0.00 68 1017.4
20260902021858 73 221 1.7 5.2 0.00 0.00 0.00 68 1017.4
20260902021641 73 179 0.9 5.2 0.00 0.00 0.00 67 1017.4
20260902021439 73 220 2.6 5.2 0.00 0.00 0.00 67 1017.4
20260902021240 73 203 3.5 5.2 0.00 0.00 0.00 67 1017.4
20260902021037 73 221 3.5 5.2 0.00 0.00 0.00 67 1017.5
20260902020838 73 234 2.6 5.2 0.00 0.00 0.00 67 1017.4
20260902020636 73 221 3.5 5.2 0.00 0.00 0.00 67 1017.5
20260902020436 74 231 2.6 4.3 0.00 0.00 0.00 67 1017.5
20260902020236 74 224 1.7 5.2 0.00 0.00 0.00 67 1017.4
20260902020049 74 193 1.7 5.2 0.00 0.00 0.00 67 1017.4
20260902015832 74 223 2.6 7.8 0.00 0.00 0.00 67 1017.4
20260902015635 74 220 2.6 7.8 0.00 0.00 0.00 67 1017.4
20260902015433 74 228 3.5 7.8 0.00 0.00 0.00 68 1017.4
20260902015231 74 223 1.7 7.8 0.00 0.00 0.00 68 1017.3
20260902015029 74 176 2.6 7.8 0.00 0.00 0.00 68 1017.4
20260902014829 74 200 5.2 6.1 0.00 0.00 0.00 68 1017.4
20260902014629 74 192 1.7 6.1 0.00 0.00 0.00 68 1017.4
20260902014429 74 209 2.6 6.1 0.00 0.00 0.00 68 1017.4
20260902014229 74 210 3.5 5.2 0.00 0.00 0.00 68 1017.3
20260902014028 74 219 1.7 5.2 0.00 0.00 0.00 68 1017.4
20260902013832 74 200 2.6 5.2 0.00 0.00 0.00 68 1017.3
20260902013632 74 219 1.7 5.2 0.00 0.00 0.00 68 1017.3
20260902013431 74 216 2.6 5.2 0.00 0.00 0.00 68 1017.4
20260902013228 74 224 1.7 5.2 0.00 0.00 0.00 68 1017.3
20260902013027 74 213 1.7 6.1 0.00 0.00 0.00 67 1017.3
20260902012824 74 210 2.6 6.1 0.00 0.00 0.00 67 1017.2
20260902012624 74 221 1.7 7.8 0.00 0.00 0.00 67 1017.3
20260902012422 74 182 1.7 7.8 0.00 0.00 0.00 67 1017.3
20260902012223 74 196 1.7 7.8 0.00 0.00 0.00 67 1017.4
20260902012029 74 224 3.5 7.8 0.00 0.00 0.00 67 1017.3
20260902011822 74 226 4.3 7.8 0.00 0.00 0.00 67 1017.3
20260902011621 74 226 3.5 6.1 0.00 0.00 0.00 67 1017.2
20260902011420 74 223 0.9 4.3 0.00 0.00 0.00 66 1017.3
20260902011220 74 216 1.7 4.3 0.00 0.00 0.00 66 1017.4
20260902011021 74 214 0.9 4.3 0.00 0.00 0.00 66 1017.5
20260902010819 74 213 2.6 4.3 0.00 0.00 0.00 66 1017.4
20260902010618 74 217 0.9 4.3 0.00 0.00 0.00 66 1017.4
20260902010418 75 188 0.9 4.3 0.00 0.00 0.00 65 1017.5
20260902010218 75 206 2.6 4.3 0.00 0.00 0.00 65 1017.4
20260902010042 75 234 1.7 4.3 0.00 0.00 0.00 65 1017.3
20260902005817 75 223 2.6 4.3 0.00 0.00 0.00 65 1017.3
20260902005616 75 230 1.7 4.3 0.00 0.00 0.00 65 1017.4
20260902005413 75 228 1.7 4.3 0.00 0.00 0.00 64 1017.3
20260902005213 75 214 1.7 4.3 0.00 0.00 0.00 65 1017.4
20260902005017 75 231 1.7 4.3 0.00 0.00 0.00 65 1017.4
20260902004821 75 200 2.6 4.3 0.00 0.00 0.00 64 1017.3
20260902004620 75 172 1.7 5.2 0.00 0.00 0.00 64 1017.3
20260902004419 75 265 1.7 5.2 0.00 0.00 0.00 65 1017.3
20260902004217 75 172 1.7 5.2 0.00 0.00 0.00 65 1017.3
20260902004029 75 221 1.7 5.2 0.00 0.00 0.00 65 1017.3
20260902003809 75 195 2.6 5.2 0.00 0.00 0.00 65 1017.3
20260902003611 75 199 0.9 3.5 0.00 0.00 0.00 65 1017.2
20260902003406 75 199 0.9 2.6 0.00 0.00 0.00 66 1017.2
20260902003204 75 199 0.9 2.6 0.00 0.00 0.00 66 1017.3
20260902003012 75 199 1.7 2.6 0.00 0.00 0.00 66 1017.2
20260902002803 75 199 0.0 2.6 0.00 0.00 0.00 66 1017.2
20260902002603 75 199 0.0 2.6 0.00 0.00 0.00 66 1017.3
20260902002402 75 199 0.9 2.6 0.00 0.00 0.00 66 1017.2
20260902002204 75 199 0.0 2.6 0.00 0.00 0.00 66 1017.2
20260902002000 75 199 0.0 2.6 0.00 0.00 0.00 66 1017.3
20260902001801 75 199 0.9 2.6 0.00 0.00 0.00 66 1017.2
20260902001559 75 199 0.0 2.6 0.00 0.00 0.00 66 1017.2
20260902001400 75 199 0.0 2.6 0.00 0.00 0.00 66 1017.2
20260902001158 75 199 0.9 2.6 0.00 0.00 0.00 66 1017.2
20260902001003 75 199 0.9 4.3 0.00 0.00 0.00 66 1017.3
20260902000758 75 199 0.9 4.3 0.00 0.00 0.00 66 1017.3
20260902000557 75 199 0.9 4.3 0.00 0.00 0.00 66 1017.3
20260902000359 75 203 1.7 4.3 0.00 0.00 0.00 66 1017.2
20260902000158 75 220 2.6 4.3 0.00 0.00 0.00 66 1017.3
20260902000001 75 207 0.9 4.3 0.00 0.00 0.00 66 1017.3
20260901235756 75 206 1.7 4.3 0.00 0.00 0.00 66 1017.2
20260901235604 75 206 1.7 4.3 0.00 0.00 0.00 66 1017.2
20260901235400 75 216 1.7 5.2 0.00 0.00 0.00 66 1017.3
20260901235203 75 200 1.7 5.2 0.00 0.00 0.00 66 1017.3
20260901235001 75 227 1.7 5.2 0.00 0.00 0.00 66 1017.3
20260901234753 75 199 1.7 5.2 0.00 0.00 0.00 66 1017.3
20260901234550 75 231 2.6 5.2 0.00 0.00 0.00 66 1017.3
20260901234350 75 238 3.5 5.2 0.00 0.00 0.00 66 1017.3
20260901234149 76 243 2.6 4.3 0.00 0.00 0.00 66 1017.3
20260901233952 76 231 1.7 4.3 0.00 0.00 0.00 66 1017.3
20260901233750 76 244 2.6 4.3 0.00 0.00 0.00 65 1017.3
20260901233549 76 216 2.6 4.3 0.00 0.00 0.00 65 1017.3
20260901233348 76 221 3.5 4.3 0.00 0.00 0.00 65 1017.2
20260901233147 76 210 2.6 4.3 0.00 0.00 0.00 65 1017.3
20260901232948 76 212 1.7 4.3 0.00 0.00 0.00 65 1017.1
20260901232747 76 189 1.7 4.3 0.00 0.00 0.00 65 1017.3
20260901232545 76 235 1.7 4.3 0.00 0.00 0.00 65 1017.2
20260901232346 76 210 2.6 4.3 0.00 0.00 0.00 65 1017.2
20260901232147 76 224 1.7 4.3 0.00 0.00 0.00 66 1017.2
20260901231948 76 186 2.6 5.2 0.00 0.00 0.00 66 1017.2
20260901231745 76 237 1.7 8.7 0.00 0.00 0.00 66 1017.2
20260901231541 76 193 1.7 8.7 0.00 0.00 0.00 66 1017.1
20260901231342 76 190 1.7 8.7 0.00 0.00 0.00 67 1017.2
20260901231141 76 221 2.6 8.7 0.00 0.00 0.00 67 1017.2
20260901230940 76 220 3.5 8.7 0.00 0.00 0.00 67 1017.2
20260901230740 76 199 2.6 4.3 0.00 0.00 0.00 67 1017.2
20260901230546 76 199 2.6 4.3 0.00 0.00 0.00 67 1017.2
20260901230345 76 199 1.7 4.3 0.00 0.00 0.00 67 1017.2
20260901230146 76 199 1.7 4.3 0.00 0.00 0.00 67 1017.1
20260901225948 76 199 0.9 2.6 0.00 0.00 0.00 67 1017.2
20260901225737 76 199 1.7 2.6 0.00 0.00 0.00 67 1017.1
20260901225538 76 199 0.9 2.6 0.00 0.00 0.00 67 1017.1
20260901225336 76 199 0.9 2.6 0.00 0.00 0.00 67 1017.2
20260901225138 76 199 0.9 3.5 0.00 0.00 0.00 67 1017.2
20260901224937 76 199 0.9 3.5 0.00 0.00 0.00 67 1017.1
20260901224736 76 199 0.9 4.3 0.00 0.00 0.00 67 1017.2
20260901224537 76 199 1.7 4.3 0.00 0.00 0.00 67 1017.2
20260901224337 76 199 2.6 4.3 0.00 0.00 0.00 67 1017.2
20260901224136 76 199 1.7 4.3 0.00 0.00 0.00 67 1017.2
20260901223936 76 199 2.6 4.3 0.00 0.00 0.00 67 1017.3
20260901223735 76 199 2.6 3.5 0.00 0.00 0.00 67 1017.1
20260901223536 76 199 1.7 3.5 0.00 0.00 0.00 68 1017.2
20260901223336 76 199 0.9 3.5 0.00 0.00 0.00 68 1017.2
20260901223139 76 199 1.7 3.5 0.00 0.00 0.00 68 1017.1
20260901222938 76 199 0.9 3.5 0.00 0.00 0.00 68 1017.2
20260901222736 76 199 1.7 3.5 0.00 0.00 0.00 68 1017.2
20260901222536 76 199 2.6 3.5 0.00 0.00 0.00 67 1017.2
20260901222334 77 199 1.7 3.5 0.00 0.00 0.00 68 1017.2
20260901222145 77 199 0.9 3.5 0.00 0.00 0.00 68 1017.2
20260901221940 77 199 0.9 3.5 0.00 0.00 0.00 68 1017.2
20260901221738 77 199 1.7 3.5 0.00 0.00 0.00 68 1017.2
20260901221538 77 199 1.7 4.3 0.00 0.00 0.00 68 1017.2
20260901221337 77 199 1.7 4.3 0.00 0.00 0.00 68 1017.2
20260901221137 77 199 1.7 4.3 0.00 0.00 0.00 68 1017.2
20260901220936 77 199 1.7 4.3 0.00 0.00 0.00 67 1017.1
20260901220736 77 199 3.5 4.3 0.00 0.00 0.00 67 1017.1
20260901220541 77 199 1.7 4.3 0.00 0.00 0.00 67 1017.2
20260901220335 77 199 1.7 5.2 0.00 0.00 0.00 67 1017.2
20260901220136 77 199 0.9 5.2 0.00 0.00 0.00 67 1017.2
20260901215938 78 199 1.7 5.2 0.00 0.00 0.00 67 1017.2
20260901215739 78 199 2.6 5.2 0.00 0.00 0.00 67 1017.2
20260901215536 78 183 2.6 5.2 0.00 0.00 0.00 68 1017.1
20260901215337 78 183 0.9 2.6 0.00 0.00 0.00 69 1017.1
20260901215136 78 183 0.9 2.6 0.00 0.00 0.00 69 1017.1
20260901214934 78 183 0.0 1.7 0.00 0.00 0.00 70 1017.1
20260901214736 78 183 0.0 1.7 0.00 0.00 0.00 70 1017.1
20260901214534 78 183 0.9 1.7 0.00 0.00 0.00 70 1017.2
20260901214336 78 183 0.0 0.0 0.00 0.00 0.00 70 1017.1
20260901214139 78 183 0.0 0.0 0.00 0.00 0.00 69 1017.1
20260901213941 78 183 0.0 0.0 0.00 0.00 0.00 70 1016.9
20260901213742 78 183 0.0 0.0 0.00 0.00 0.00 70 1016.9
20260901213543 78 183 0.0 0.9 0.00 0.00 0.00 70 1017.1
20260901213336 78 183 0.0 0.9 0.00 0.00 0.00 70 1016.9
20260901213137 78 183 0.0 0.9 0.00 0.00 0.00 70 1017.1
20260901212935 78 183 0.0 0.9 0.00 0.00 0.00 70 1016.8
20260901212737 78 183 0.0 1.7 0.00 0.00 0.00 70 1016.9
20260901212540 78 183 0.0 1.7 0.00 0.00 0.00 70 1016.9
20260901212341 79 183 0.0 4.3 0.00 0.00 0.00 70 1016.8
20260901212137 79 183 0.0 4.3 0.00 0.00 0.00 70 1016.9
20260901211935 79 183 0.0 4.3 0.00 0.00 0.00 70 1016.9
20260901211737 79 183 0.9 5.2 0.00 0.00 0.00 70 1016.8
20260901211535 79 183 1.7 5.2 0.00 0.00 0.00 69 1016.9
20260901211340 79 197 1.7 5.2 0.00 0.00 0.00 70 1016.8
20260901211136 79 125 0.9 5.2 0.00 0.00 0.00 70 1016.8
20260901210936 79 223 1.7 5.2 0.00 0.00 0.00 70 1016.7
20260901210737 79 217 1.7 4.3 0.00 0.00 0.00 70 1016.7
20260901210534 79 237 0.0 2.6 0.00 0.00 0.00 70 1016.7
20260901210337 79 76 0.0 2.6 0.00 0.00 0.00 70 1016.7
20260901210137 80 75 0.9 2.6 0.00 0.00 0.00 70 1016.7
20260901205942 80 73 0.9 1.7 0.00 0.00 0.00 70 1016.6
20260901205741 80 72 0.9 1.7 0.00 0.00 0.00 70 1016.7
20260901205537 80 75 0.9 1.7 0.00 0.00 0.00 70 1016.7
20260901205343 80 109 0.9 1.7 0.00 0.00 0.00 70 1016.7
20260901205138 80 94 0.0 2.6 0.00 0.00 0.00 70 1016.7
20260901204936 80 94 0.0 2.6 0.00 0.00 0.00 70 1016.6
20260901204736 80 96 0.0 2.6 0.00 0.00 0.00 70 1016.7
20260901204535 80 58 0.0 3.5 0.00 0.00 0.00 70 1016.6
20260901204335 80 58 0.9 3.5 0.00 0.00 0.00 69 1016.6
20260901204137 80 120 0.0 3.5 0.00 0.00 0.00 69 1016.6
20260901203933 80 120 0.0 3.5 0.00 0.00 0.00 69 1016.5
20260901203735 80 120 1.7 3.5 0.00 0.00 0.00 69 1016.6
20260901203536 80 106 1.7 3.5 0.00 0.00 0.00 69 1016.6
20260901203334 80 148 0.9 3.5 0.00 0.00 0.00 69 1016.6
20260901203136 80 134 0.0 3.5 0.00 0.00 0.00 69 1016.6
20260901202934 80 134 0.0 3.5 0.00 0.00 0.00 69 1016.6
20260901202736 80 134 0.0 3.5 0.00 0.00 0.00 69 1016.6
20260901202535 80 134 0.0 3.5 0.00 0.00 0.00 69 1016.6
20260901202336 81 134 1.7 5.2 0.00 0.00 0.00 69 1016.6
20260901202136 81 92 0.0 5.2 0.00 0.00 0.00 69 1016.5
20260901201935 81 131 0.9 5.2 0.00 0.00 0.00 69 1016.5
20260901201743 81 118 1.7 5.2 0.00 0.00 0.00 69 1016.5
20260901201541 81 114 2.6 5.2 0.00 0.00 0.00 69 1016.6
20260901201338 81 133 0.9 6.1 0.00 0.00 0.00 69 1016.5
20260901201140 81 133 0.9 6.1 0.00 0.00 0.00 69 1016.6
20260901200934 81 134 0.9 6.1 0.00 0.00 0.00 69 1016.5
20260901200735 81 125 0.9 6.1 0.00 0.00 0.00 69 1016.5
20260901200542 81 110 2.6 6.1 0.00 0.00 0.00 68 1016.5
20260901200334 81 63 4.3 6.1 0.00 0.00 0.00 68 1016.4
20260901200135 81 47 3.5 6.1 0.00 0.00 0.00 68 1016.4
20260901195935 81 65 1.7 4.3 0.00 0.00 0.00 68 1016.4
20260901195738 81 78 1.7 4.3 0.00 0.00 0.00 68 1016.4
20260901195548 81 114 1.7 4.3 0.00 0.00 0.00 68 1016.5
20260901195334 81 114 1.7 4.3 0.00 0.00 0.00 68 1016.4
20260901195136 81 87 1.7 5.2 0.00 0.00 0.00 68 1016.4
20260901194935 81 111 2.6 6.1 0.00 0.00 0.00 68 1016.3
20260901194738 81 72 0.9 6.1 0.00 0.00 0.00 67 1016.4
20260901194539 81 121 1.7 6.1 0.00 0.00 0.00 67 1016.4
20260901194336 82 71 0.9 6.1 0.00 0.00 0.00 67 1016.4
20260901194135 82 35 2.6 6.1 0.00 0.00 0.00 67 1016.4
20260901193936 82 135 1.7 6.1 0.00 0.00 0.00 67 1016.4
20260901193748 82 114 1.7 6.1 0.00 0.00 0.00 66 1016.4
20260901193551 82 134 1.7 6.1 0.00 0.00 0.00 66 1016.4
20260901193342 82 121 2.6 6.1 0.00 0.00 0.00 66 1016.4
20260901193138 82 107 3.5 6.1 0.00 0.00 0.00 66 1016.4
20260901192937 82 117 3.5 5.2 0.00 0.00 0.00 66 1016.4
20260901192736 82 110 0.9 5.2 0.00 0.00 0.00 66 1016.4
20260901192539 82 125 0.9 5.2 0.00 0.00 0.00 65 1016.4
20260901192334 82 59 0.0 4.3 0.00 0.00 0.00 65 1016.5
20260901192137 82 71 0.9 4.3 0.00 0.00 0.00 65 1016.4
20260901191936 82 121 0.0 4.3 0.00 0.00 0.00 65 1016.4
20260901191741 83 123 0.9 5.2 0.00 0.00 0.00 65 1016.3
20260901191540 83 83 1.7 6.1 0.00 0.00 0.00 65 1016.4
20260901191337 83 103 0.0 6.1 0.00 0.00 0.00 64 1016.3
20260901191136 83 103 0.9 6.1 0.00 0.00 0.00 64 1016.3
20260901190935 83 100 3.5 6.1 0.00 0.00 0.00 64 1016.1
20260901190741 83 164 2.6 6.1 0.00 0.00 0.00 64 1016.1
20260901190534 83 118 2.6 6.1 0.00 0.00 0.00 64 1016.1
20260901190334 83 90 1.7 6.1 0.00 0.00 0.00 64 1016.1
20260901190136 83 151 1.7 6.1 0.00 0.00 0.00 64 1016.1
20260901185934 83 120 0.0 6.1 0.00 0.00 0.00 63 1016.0
20260901185745 83 117 2.6 6.1 0.00 0.00 0.00 63 1016.0
20260901185543 83 87 1.7 6.1 0.00 0.00 0.00 63 1016.1
20260901185340 83 86 1.7 6.1 0.00 0.00 0.00 63 1016.0
20260901185141 83 76 1.7 5.2 0.00 0.00 0.00 63 1016.0
20260901184938 83 127 2.6 5.2 0.00 0.00 0.00 63 1015.9
20260901184738 83 106 0.0 2.6 0.00 0.00 0.00 62 1016.0
20260901184540 83 124 0.9 4.3 0.00 0.00 0.00 62 1016.0
20260901184334 83 45 0.9 10.4 0.00 0.00 0.00 62 1015.9
20260901184137 83 128 1.7 10.4 0.00 0.00 0.00 62 1015.9
20260901183933 83 45 1.7 10.4 0.00 0.00 0.00 61 1015.8
20260901183736 84 94 1.7 10.4 0.00 0.00 0.00 61 1015.8
20260901183538 84 127 3.5 10.4 0.00 0.00 0.00 61 1015.7
20260901183335 84 97 2.6 10.4 0.00 0.00 0.00 61 1015.7
20260901183135 84 106 3.5 10.4 0.00 0.00 0.00 61 1015.6
20260901182934 84 99 1.7 8.7 0.00 0.00 0.00 60 1015.7
20260901182738 84 120 1.7 8.7 0.00 0.00 0.00 60 1015.8
20260901182536 84 102 1.7 8.7 0.00 0.00 0.00 60 1015.6
20260901182334 84 51 3.5 8.7 0.00 0.00 0.00 59 1015.6
20260901182135 84 85 3.5 8.7 0.00 0.00 0.00 59 1015.5
20260901181934 84 114 1.7 11.3 0.00 0.00 0.00 58 1015.6
20260901181744 84 114 0.9 11.3 0.00 0.00 0.00 58 1015.6
20260901181540 84 56 1.7 11.3 0.00 0.00 0.00 58 1015.5
20260901181340 84 114 1.7 11.3 0.00 0.00 0.00 58 1015.5
20260901181136 84 37 3.5 11.3 0.00 0.00 0.00 58 1015.3
20260901180939 85 41 1.7 11.3 0.00 0.00 0.00 57 1015.4
20260901180735 85 69 2.6 11.3 0.00 0.00 0.00 57 1015.4
20260901180534 85 89 2.6 11.3 0.00 0.00 0.00 57 1015.4
20260901180334 85 165 3.5 11.3 0.00 0.00 0.00 57 1015.4
20260901180134 85 130 4.3 9.6 0.00 0.00 0.00 57 1015.4
20260901175936 85 111 4.3 9.6 0.00 0.00 0.00 57 1015.4
20260901175734 85 59 4.3 9.6 0.00 0.00 0.00 57 1015.4
20260901175534 85 69 4.3 9.6 0.00 0.00 0.00 57 1015.4
20260901175336 85 49 1.7 10.4 0.00 0.00 0.00 57 1015.5
20260901175136 85 116 2.6 10.4 0.00 0.00 0.00 57 1015.5
20260901174937 85 118 3.5 10.4 0.00 0.00 0.00 57 1015.5
20260901174734 85 39 3.5 10.4 0.00 0.00 0.00 57 1015.5
20260901174533 85 86 5.2 10.4 0.00 0.00 0.00 57 1015.5
20260901174333 85 61 4.3 10.4 0.00 0.00 0.00 57 1015.4
20260901174132 85 54 4.3 9.6 0.00 0.00 0.00 57 1015.4
20260901173934 85 107 3.5 9.6 0.00 0.00 0.00 57 1015.4
20260901173732 85 90 4.3 9.6 0.00 0.00 0.00 57 1015.3
20260901173534 85 104 3.5 11.3 0.00 0.00 0.00 57 1015.1
20260901173337 85 120 3.5 11.3 0.00 0.00 0.00 57 1015.3
20260901173134 85 97 5.2 11.3 0.00 0.00 0.00 57 1015.3
20260901172919 85 63 4.3 11.3 0.00 0.00 0.00 57 1015.3
20260901172727 85 75 5.2 11.3 0.00 0.00 0.00 57 1015.3
20260901172528 85 75 5.2 11.3 0.00 0.00 0.00 57 1015.2
20260901172321 85 78 5.2 11.3 0.00 0.00 0.00 57 1015.3
20260901172119 86 62 3.5 9.6 0.00 0.00 0.00 57 1015.3
20260901171918 86 73 3.5 12.2 0.00 0.00 0.00 57 1015.3
20260901171714 86 255 3.5 12.2 0.00 0.00 0.00 57 1015.1
20260901171525 86 87 3.5 12.2 0.00 0.00 0.00 57 1015.2
20260901171313 86 28 3.5 12.2 0.00 0.00 0.00 57 1015.1
20260901171114 86 30 6.1 12.2 0.00 0.00 0.00 57 1015.1
20260901170915 86 83 3.5 10.4 0.00 0.00 0.00 57 1015.2
20260901170713 86 127 4.3 10.4 0.00 0.00 0.00 57 1015.3
20260901170519 86 39 3.5 10.4 0.00 0.00 0.00 57 1015.2
20260901170314 86 109 3.5 10.4 0.00 0.00 0.00 57 1015.1
20260901170105 86 62 6.1 10.4 0.00 0.00 0.00 57 1015.2
20260901165905 86 68 4.3 10.4 0.00 0.00 0.00 57 1015.2
20260901165705 86 80 5.2 10.4 0.00 0.00 0.00 58 1015.2
20260901165501 86 134 4.3 12.2 0.00 0.00 0.00 58 1015.3
20260901165256 86 120 2.6 12.2 0.00 0.00 0.00 58 1015.3
20260901165055 86 100 2.6 12.2 0.00 0.00 0.00 58 1015.3
20260901164854 86 144 3.5 12.2 0.00 0.00 0.00 58 1015.3
20260901164655 86 124 6.1 12.2 0.00 0.00 0.00 58 1015.3
20260901164446 86 114 3.5 12.2 0.00 0.00 0.00 58 1015.2
20260901164247 86 107 1.7 12.2 0.00 0.00 0.00 58 1015.3
20260901164045 87 48 5.2 12.2 0.00 0.00 0.00 57 1015.3
20260901163845 87 79 7.8 12.2 0.00 0.00 0.00 57 1015.3
20260901163645 87 45 7.0 12.2 0.00 0.00 0.00 57 1015.3
20260901163446 87 68 5.2 13.0 0.00 0.00 0.00 57 1015.2
20260901163245 87 10 4.3 13.0 0.00 0.00 0.00 57 1015.2
20260901163043 87 97 3.5 13.0 0.00 0.00 0.00 56 1015.3
20260901162843 87 141 6.1 13.0 0.00 0.00 0.00 56 1015.3
20260901162642 87 44 6.1 13.0 0.00 0.00 0.00 56 1015.3
20260901162443 87 99 3.5 12.2 0.00 0.00 0.00 57 1015.2
20260901162242 87 79 2.6 11.3 0.00 0.00 0.00 56 1015.2
20260901162043 87 51 7.0 11.3 0.00 0.00 0.00 56 1015.3
20260901161847 88 75 6.1 11.3 0.00 0.00 0.00 56 1015.3
20260901161646 88 82 4.3 8.7 0.00 0.00 0.00 57 1015.3
20260901161445 88 89 2.6 7.8 0.00 0.00 0.00 57 1015.3
20260901161240 88 100 3.5 8.7 0.00 0.00 0.00 57 1015.3
20260901161048 88 99 2.6 11.3 0.00 0.00 0.00 57 1015.3
20260901160840 87 66 2.6 11.3 0.00 0.00 0.00 57 1015.3
20260901160637 87 89 2.6 16.5 0.00 0.00 0.00 57 1015.4
20260901160437 87 97 4.3 16.5 0.00 0.00 0.00 57 1015.3
20260901160234 87 56 4.3 16.5 0.00 0.00 0.00 57 1015.3
20260901160051 87 83 6.1 16.5 0.00 0.00 0.00 57 1015.3
20260901155839 87 58 9.6 16.5 0.00 0.00 0.00 57 1015.3
20260901155636 87 39 8.7 15.6 0.00 0.00 0.00 57 1015.3
20260901155438 87 68 9.6 15.6 0.00 0.00 0.00 57 1015.3
20260901155235 87 78 7.8 13.0 0.00 0.00 0.00 57 1015.4
20260901155034 87 42 5.2 14.8 0.00 0.00 0.00 57 1015.2
20260901154833 87 42 4.3 14.8 0.00 0.00 0.00 57 1015.3
20260901154632 87 138 7.0 14.8 0.00 0.00 0.00 58 1015.4
20260901154429 87 68 3.5 14.8 0.00 0.00 0.00 58 1015.3
20260901154229 87 0 6.1 14.8 0.00 0.00 0.00 58 1015.3
20260901154029 87 65 3.5 12.2 0.00 0.00 0.00 58 1015.4
20260901153829 87 86 3.5 12.2 0.00 0.00 0.00 58 1015.4
20260901153629 87 131 3.5 12.2 0.00 0.00 0.00 58 1015.4
20260901153429 87 39 6.1 12.2 0.00 0.00 0.00 58 1015.3
20260901153229 88 63 7.0 12.2 0.00 0.00 0.00 58 1015.4
20260901153035 88 104 5.2 12.2 0.00 0.00 0.00 57 1015.4
20260901152832 88 10 5.2 11.3 0.00 0.00 0.00 57 1015.4
20260901152631 88 117 3.5 11.3 0.00 0.00 0.00 57 1015.4
20260901152431 88 96 6.1 11.3 0.00 0.00 0.00 57 1015.4
20260901152233 88 87 7.8 12.2 0.00 0.00 0.00 57 1015.3
20260901152032 89 106 3.5 12.2 0.00 0.00 0.00 57 1015.4
20260901151831 89 71 2.6 12.2 0.00 0.00 0.00 57 1015.4
20260901151629 89 123 3.5 12.2 0.00 0.00 0.00 57 1015.3
20260901151429 89 76 7.0 13.9 0.00 0.00 0.00 57 1015.3
20260901151229 89 149 4.3 13.9 0.00 0.00 0.00 57 1015.3
20260901151032 89 103 3.5 13.9 0.00 0.00 0.00 57 1015.3
20260901150829 89 71 3.5 13.9 0.00 0.00 0.00 57 1015.3
20260901150629 89 110 6.1 13.9 0.00 0.00 0.00 57 1015.3
20260901150427 89 69 4.3 13.0 0.00 0.00 0.00 57 1015.2
20260901150228 89 103 6.1 13.0 0.00 0.00 0.00 56 1015.4
20260901150049 90 45 8.7 13.0 0.00 0.00 0.00 56 1015.2
20260901145826 90 72 3.5 12.2 0.00 0.00 0.00 55 1015.2
20260901145625 90 96 5.2 12.2 0.00 0.00 0.00 55 1015.3
20260901145428 90 93 7.0 11.3 0.00 0.00 0.00 55 1015.2
20260901145224 90 68 5.2 10.4 0.00 0.00 0.00 54 1015.3
20260901145026 90 93 3.5 9.6 0.00 0.00 0.00 53 1015.2
20260901144825 90 51 1.7 5.2 0.00 0.00 0.00 51 1015.3
20260901144626 90 66 1.7 7.8 0.00 0.00 0.00 50 1015.3
20260901144420 90 151 1.7 7.8 0.00 0.00 0.00 50 1015.3
20260901144226 90 30 3.5 7.8 0.00 0.00 0.00 50 1015.3
20260901144028 91 63 3.5 7.8 0.00 0.00 0.00 50 1015.3
20260901143821 91 89 3.5 7.8 0.00 0.00 0.00 49 1015.3
20260901143619 91 47 1.7 7.8 0.00 0.00 0.00 49 1015.3
20260901143418 91 56 3.5 9.6 0.00 0.00 0.00 49 1015.2
20260901143217 91 62 0.9 10.4 0.00 0.00 0.00 49 1015.3
20260901143023 90 16 2.6 10.4 0.00 0.00 0.00 49 1015.2
20260901142818 90 62 3.5 10.4 0.00 0.00 0.00 49 1015.2
20260901142616 90 341 6.1 10.4 0.00 0.00 0.00 48 1015.3
20260901142416 90 0 5.2 10.4 0.00 0.00 0.00 48 1015.3
20260901142215 90 353 3.5 7.8 0.00 0.00 0.00 48 1015.3
20260901142017 90 16 4.3 7.8 0.00 0.00 0.00 48 1015.5
20260901141814 90 0 4.3 8.7 0.00 0.00 0.00 48 1015.4
20260901141614 90 338 5.2 8.7 0.00 0.00 0.00 48 1015.4
20260901141413 90 14 2.6 8.7 0.00 0.00 0.00 48 1015.3
20260901141216 90 89 3.5 8.7 0.00 0.00 0.00 48 1015.5
20260901141020 90 75 3.5 8.7 0.00 0.00 0.00 48 1015.5
20260901140813 90 0 1.7 6.1 0.00 0.00 0.00 49 1015.4
20260901140610 90 17 2.6 6.1 0.00 0.00 0.00 49 1015.4
20260901140409 90 0 3.5 6.1 0.00 0.00 0.00 48 1015.5
20260901140212 90 71 1.7 6.1 0.00 0.00 0.00 48 1015.4
20260901140041 90 103 0.0 6.1 0.00 0.00 0.00 48 1015.5
20260901135807 90 45 3.5 6.1 0.00 0.00 0.00 48 1015.5
20260901135607 91 58 1.7 5.2 0.00 0.00 0.00 48 1015.5
20260901135415 91 94 3.5 5.2 0.00 0.00 0.00 47 1015.5
20260901135213 91 79 1.7 5.2 0.00 0.00 0.00 47 1015.5
20260901135028 91 93 0.9 5.2 0.00 0.00 0.00 47 1015.5
20260901134809 91 106 2.6 5.2 0.00 0.00 0.00 47 1015.5
20260901134607 92 37 2.6 5.2 0.00 0.00 0.00 47 1015.6
20260901134406 92 79 1.7 5.2 0.00 0.00 0.00 47 1015.6
20260901134206 92 31 3.5 5.2 0.00 0.00 0.00 47 1015.5
20260901134012 92 73 1.7 4.3 0.00 0.00 0.00 47 1015.5
20260901133805 92 357 2.6 4.3 0.00 0.00 0.00 47 1015.6
20260901133602 92 10 0.9 4.3 0.00 0.00 0.00 47 1015.6
20260901133403 92 71 1.7 4.3 0.00 0.00 0.00 48 1015.5
20260901133208 92 0 2.6 4.3 0.00 0.00 0.00 48 1015.5
20260901133019 91 61 0.9 6.1 0.00 0.00 0.00 48 1015.5
20260901132802 91 147 0.9 6.1 0.00 0.00 0.00 48 1015.6
20260901132602 91 85 0.9 6.1 0.00 0.00 0.00 48 1015.6
20260901132402 91 106 0.9 6.1 0.00 0.00 0.00 48 1015.6
20260901132204 91 164 2.6 6.1 0.00 0.00 0.00 48 1015.6
20260901132021 91 133 3.5 6.1 0.00 0.00 0.00 48 1015.6
20260901131801 91 121 1.7 6.1 0.00 0.00 0.00 49 1015.7
20260901131606 91 154 1.7 6.1 0.00 0.00 0.00 48 1015.7
20260901131402 91 85 2.6 6.1 0.00 0.00 0.00 49 1015.7
20260901131205 91 111 1.7 3.5 0.00 0.00 0.00 49 1015.6
20260901131011 90 76 1.7 5.2 0.00 0.00 0.00 49 1015.7
20260901130811 90 0 1.7 6.1 0.00 0.00 0.00 49 1015.7
20260901130608 90 274 1.7 6.1 0.00 0.00 0.00 49 1015.8
20260901130407 90 203 1.7 6.1 0.00 0.00 0.00 49 1015.8
20260901130206 90 283 3.5 6.1 0.00 0.00 0.00 49 1015.8
20260901130007 91 316 2.6 6.1 0.00 0.00 0.00 49 1015.9
20260901125803 91 243 1.7 5.2 0.00 0.00 0.00 49 1015.8
20260901125604 91 224 0.9 10.4 0.00 0.00 0.00 49 1015.8
20260901125404 90 203 0.9 10.4 0.00 0.00 0.00 50 1015.9
20260901125204 90 300 0.0 10.4 0.00 0.00 0.00 50 1015.9
20260901125014 90 0 0.9 10.4 0.00 0.00 0.00 49 1016.0
20260901124803 90 0 5.2 10.4 0.00 0.00 0.00 49 1015.9
20260901124602 90 323 2.6 5.2 0.00 0.00 0.00 50 1015.9
20260901124403 90 317 3.5 5.2 0.00 0.00 0.00 50 1015.9
20260901124205 90 0 3.5 5.2 0.00 0.00 0.00 50 1015.9
20260901124015 90 4 1.7 4.3 0.00 0.00 0.00 51 1016.0
20260901123800 89 341 0.9 8.7 0.00 0.00 0.00 50 1016.0
20260901123601 89 69 2.6 8.7 0.00 0.00 0.00 50 1015.9
20260901123402 89 54 1.7 8.7 0.00 0.00 0.00 51 1016.0
20260901123200 89 118 4.3 8.7 0.00 0.00 0.00 51 1015.9
20260901122949 89 351 6.1 8.7 0.00 0.00 0.00 51 1016.0
20260901122749 90 0 4.3 8.7 0.00 0.00 0.00 51 1016.1
20260901122547 90 0 4.3 7.8 0.00 0.00 0.00 50 1016.1
20260901122347 89 286 0.9 3.5 0.00 0.00 0.00 51 1016.1
20260901122146 89 312 0.0 5.2 0.00 0.00 0.00 51 1016.1
20260901121952 89 312 0.9 5.2 0.00 0.00 0.00 52 1016.2
20260901121751 89 264 0.9 5.2 0.00 0.00 0.00 52 1016.1
20260901121550 89 302 0.9 7.8 0.00 0.00 0.00 52 1016.2
20260901121348 88 275 3.5 8.7 0.00 0.00 0.00 52 1016.2
20260901121149 88 310 1.7 8.7 0.00 0.00 0.00 52 1016.3
20260901120950 88 244 0.9 8.7 0.00 0.00 0.00 52 1016.3
20260901120742 88 233 3.5 8.7 0.00 0.00 0.00 51 1016.2
20260901120540 89 250 4.3 8.7 0.00 0.00 0.00 51 1016.3
20260901120341 89 305 4.3 7.8 0.00 0.00 0.00 52 1016.3
20260901120139 89 323 2.6 7.8 0.00 0.00 0.00 52 1016.2
20260901115939 89 248 3.5 6.1 0.00 0.00 0.00 52 1016.3
20260901115736 89 59 1.7 5.2 0.00 0.00 0.00 52 1016.3
20260901115536 88 334 0.9 5.2 0.00 0.00 0.00 52 1016.3
20260901115335 88 0 0.9 5.2 0.00 0.00 0.00 52 1016.3
20260901115138 88 59 2.6 5.2 0.00 0.00 0.00 52 1016.3
20260901114936 88 82 2.6 5.2 0.00 0.00 0.00 52 1016.4
20260901114736 88 103 3.5 5.2 0.00 0.00 0.00 52 1016.3
20260901114530 88 80 0.0 4.3 0.00 0.00 0.00 52 1016.4
20260901114329 88 154 0.9 4.3 0.00 0.00 0.00 53 1016.4
20260901114129 88 138 1.7 8.7 0.00 0.00 0.00 53 1016.3
20260901113928 87 87 1.7 8.7 0.00 0.00 0.00 54 1016.3
20260901113730 87 296 0.0 8.7 0.00 0.00 0.00 53 1016.4
20260901113529 87 264 1.7 9.6 0.00 0.00 0.00 53 1016.4
20260901113329 87 0 5.2 9.6 0.00 0.00 0.00 54 1016.4
20260901113136 87 13 2.6 9.6 0.00 0.00 0.00 54 1016.4
20260901112933 87 0 1.7 9.6 0.00 0.00 0.00 53 1016.4
20260901112732 87 1 6.1 9.6 0.00 0.00 0.00 54 1016.4
20260901112529 87 0 3.5 7.8 0.00 0.00 0.00 54 1016.4
20260901112330 87 0 0.9 7.8 0.00 0.00 0.00 54 1016.4
20260901112129 87 221 2.6 8.7 0.00 0.00 0.00 54 1016.5
20260901111929 87 293 2.6 8.7 0.00 0.00 0.00 54 1016.4
20260901111731 87 90 1.7 8.7 0.00 0.00 0.00 54 1016.4
20260901111530 87 49 1.7 8.7 0.00 0.00 0.00 54 1016.4
20260901111330 87 350 2.6 8.7 0.00 0.00 0.00 54 1016.4
20260901111132 87 329 4.3 7.8 0.00 0.00 0.00 54 1016.5
20260901110929 87 341 0.9 5.2 0.00 0.00 0.00 54 1016.4
20260901110732 87 73 1.7 5.2 0.00 0.00 0.00 55 1016.4
20260901110529 87 42 3.5 5.2 0.00 0.00 0.00 55 1016.5
20260901110329 87 0 1.7 5.2 0.00 0.00 0.00 56 1016.4
20260901110130 86 63 0.0 4.3 0.00 0.00 0.00 56 1016.5
20260901105928 86 63 0.0 4.3 0.00 0.00 0.00 56 1016.5
20260901105729 86 0 1.7 4.3 0.00 0.00 0.00 56 1016.5
20260901105528 86 307 3.5 4.3 0.00 0.00 0.00 56 1016.6
20260901105332 86 241 0.9 8.7 0.00 0.00 0.00 57 1016.5
20260901105115 86 286 0.0 8.7 0.00 0.00 0.00 57 1016.5
20260901104915 86 286 0.9 8.7 0.00 0.00 0.00 56 1016.6
20260901104715 86 289 2.6 8.7 0.00 0.00 0.00 57 1016.6
20260901104523 85 307 4.3 8.7 0.00 0.00 0.00 57 1016.6
20260901104315 85 16 2.6 6.1 0.00 0.00 0.00 57 1016.6
20260901104113 85 0 3.5 4.3 0.00 0.00 0.00 57 1016.6
20260901103910 85 331 0.9 5.2 0.00 0.00 0.00 57 1016.6
20260901103712 85 324 1.7 5.2 0.00 0.00 0.00 56 1016.6
20260901103524 85 272 1.7 7.8 0.00 0.00 0.00 57 1016.6
20260901103305 85 351 2.6 7.8 0.00 0.00 0.00 56 1016.7
20260901103103 85 299 2.6 7.8 0.00 0.00 0.00 56 1016.6
20260901102903 85 278 4.3 7.8 0.00 0.00 0.00 56 1016.7
20260901102703 86 298 4.3 7.8 0.00 0.00 0.00 56 1016.7
20260901102501 86 180 0.0 3.5 0.00 0.00 0.00 56 1016.6
20260901102300 85 189 1.7 4.3 0.00 0.00 0.00 56 1016.7
20260901102105 85 217 0.9 6.1 0.00 0.00 0.00 56 1016.7
20260901101902 85 250 0.9 6.1 0.00 0.00 0.00 57 1016.8
20260901101703 85 298 0.9 6.1 0.00 0.00 0.00 57 1016.7
20260901101514 85 343 1.7 6.1 0.00 0.00 0.00 57 1016.7
20260901101303 85 290 3.5 6.1 0.00 0.00 0.00 57 1016.7
20260901101055 85 358 0.9 7.8 0.00 0.00 0.00 57 1016.7
20260901100851 85 337 0.0 7.8 0.00 0.00 0.00 57 1016.7
20260901100653 85 0 3.5 7.8 0.00 0.00 0.00 57 1016.9
20260901100438 85 341 3.5 7.8 0.00 0.00 0.00 58 1016.7
20260901100235 85 0 0.9 3.5 0.00 0.00 0.00 59 1016.9
20260901100047 85 180 0.0 5.2 0.00 0.00 0.00 59 1016.7
20260901095836 84 180 0.0 5.2 0.00 0.00 0.00 59 1016.8
20260901095640 84 180 0.9 5.2 0.00 0.00 0.00 59 1016.8
20260901095437 84 285 0.9 5.2 0.00 0.00 0.00 59 1016.9
20260901095233 84 343 1.7 5.2 0.00 0.00 0.00 59 1016.8
20260901095033 84 353 0.9 4.3 0.00 0.00 0.00 60 1016.9
20260901094833 84 28 0.9 4.3 0.00 0.00 0.00 60 1017.1
20260901094637 84 223 0.9 4.3 0.00 0.00 0.00 60 1016.9
20260901094441 84 305 0.9 4.3 0.00 0.00 0.00 60 1017.1
20260901094246 83 326 0.9 4.3 0.00 0.00 0.00 60 1017.1
20260901094040 83 223 0.9 4.3 0.00 0.00 0.00 60 1017.1
20260901093836 83 199 1.7 4.3 0.00 0.00 0.00 60 1017.1
20260901093639 83 133 1.7 4.3 0.00 0.00 0.00 60 1017.1
20260901093436 83 251 0.9 3.5 0.00 0.00 0.00 61 1017.1
20260901093235 83 159 0.9 3.5 0.00 0.00 0.00 61 1017.1
20260901093034 83 151 0.9 3.5 0.00 0.00 0.00 61 1017.2
20260901092833 83 147 0.9 7.8 0.00 0.00 0.00 61 1017.2
20260901092638 82 259 0.9 7.8 0.00 0.00 0.00 61 1017.2
20260901092437 82 306 0.9 7.8 0.00 0.00 0.00 62 1017.3
20260901092236 82 289 0.0 7.8 0.00 0.00 0.00 62 1017.2
20260901092034 82 243 3.5 7.8 0.00 0.00 0.00 61 1017.2
20260901091833 82 281 0.9 5.2 0.00 0.00 0.00 62 1017.2
20260901091650 82 265 1.7 5.2 0.00 0.00 0.00 62 1017.1
20260901091434 82 279 1.7 6.1 0.00 0.00 0.00 62 1017.2
20260901091233 82 8 0.9 6.1 0.00 0.00 0.00 62 1017.2
20260901091036 81 61 1.7 6.1 0.00 0.00 0.00 62 1017.2
20260901090841 81 30 2.6 6.1 0.00 0.00 0.00 62 1017.2
20260901090642 81 0 4.3 6.1 0.00 0.00 0.00 63 1017.2
20260901090438 81 353 2.6 6.1 0.00 0.00 0.00 63 1017.2
20260901090234 81 206 0.9 6.1 0.00 0.00 0.00 62 1017.2
20260901090050 81 286 3.5 8.7 0.00 0.00 0.00 62 1017.1
20260901085834 81 309 3.5 8.7 0.00 0.00 0.00 62 1017.2
20260901085636 81 275 3.5 8.7 0.00 0.00 0.00 62 1017.2
20260901085435 81 305 1.7 8.7 0.00 0.00 0.00 61 1017.3
20260901085238 81 327 4.3 8.7 0.00 0.00 0.00 61 1017.2
20260901085033 81 255 0.9 4.3 0.00 0.00 0.00 62 1017.2
20260901084833 81 185 0.9 5.2 0.00 0.00 0.00 62 1017.2
20260901084636 81 231 1.7 5.2 0.00 0.00 0.00 62 1017.2
20260901084434 81 266 2.6 5.2 0.00 0.00 0.00 61 1017.2
20260901084237 81 269 2.6 5.2 0.00 0.00 0.00 61 1017.2
20260901084034 81 289 3.5 5.2 0.00 0.00 0.00 61 1017.2
20260901083834 81 299 0.9 5.2 0.00 0.00 0.00 61 1017.2
20260901083635 81 288 0.9 5.2 0.00 0.00 0.00 60 1017.2
20260901083434 81 306 0.9 5.2 0.00 0.00 0.00 60 1017.2
20260901083234 82 259 1.7 5.2 0.00 0.00 0.00 60 1017.2
20260901083036 82 358 2.6 5.2 0.00 0.00 0.00 60 1017.1
20260901082830 81 18 2.6 5.2 0.00 0.00 0.00 60 1017.1
20260901082645 81 0 2.6 3.5 0.00 0.00 0.00 60 1017.1
20260901082436 81 281 0.9 3.5 0.00 0.00 0.00 60 1016.9
20260901082231 81 281 0.0 2.6 0.00 0.00 0.00 60 1017.1
20260901082033 81 281 0.0 4.3 0.00 0.00 0.00 60 1016.9
20260901081829 81 281 0.0 4.3 0.00 0.00 0.00 61 1016.9
20260901081630 80 281 0.9 4.3 0.00 0.00 0.00 61 1016.9
20260901081430 80 4 0.9 4.3 0.00 0.00 0.00 61 1016.9
20260901081229 80 1 1.7 4.3 0.00 0.00 0.00 62 1016.9
20260901081031 80 327 0.0 2.6 0.00 0.00 0.00 62 1016.9
20260901080829 80 279 0.9 3.5 0.00 0.00 0.00 62 1016.9
20260901080629 80 279 0.9 3.5 0.00 0.00 0.00 62 1016.8
20260901080430 79 275 0.0 3.5 0.00 0.00 0.00 62 1016.9
20260901080229 79 279 0.0 3.5 0.00 0.00 0.00 62 1016.9
20260901080045 79 290 0.9 3.5 0.00 0.00 0.00 62 1016.8
20260901075828 79 281 0.0 3.5 0.00 0.00 0.00 62 1016.8
20260901075627 79 276 0.9 3.5 0.00 0.00 0.00 63 1016.9
20260901075425 79 309 1.7 3.5 0.00 0.00 0.00 63 1016.7
20260901075228 79 0 0.9 5.2 0.00 0.00 0.00 63 1016.8
20260901075026 79 4 1.7 5.2 0.00 0.00 0.00 63 1016.8
20260901074822 79 228 0.9 5.2 0.00 0.00 0.00 64 1016.8
20260901074624 78 326 2.6 5.2 0.00 0.00 0.00 63 1016.7
20260901074415 78 320 3.5 5.2 0.00 0.00 0.00 63 1016.8
20260901074215 79 288 2.6 5.2 0.00 0.00 0.00 63 1016.7
20260901074021 78 254 0.9 5.2 0.00 0.00 0.00 63 1016.8
20260901073815 78 0 1.7 5.2 0.00 0.00 0.00 63 1016.7
20260901073617 78 0 1.7 5.2 0.00 0.00 0.00 63 1016.7
20260901073417 78 272 3.5 5.2 0.00 0.00 0.00 63 1016.7
20260901073223 78 298 1.7 3.5 0.00 0.00 0.00 63 1016.6
20260901073029 78 345 1.7 3.5 0.00 0.00 0.00 63 1016.7
20260901072820 78 159 0.9 3.5 0.00 0.00 0.00 64 1016.7
20260901072615 78 227 0.9 3.5 0.00 0.00 0.00 64 1016.7
20260901072417 78 199 1.7 3.5 0.00 0.00 0.00 64 1016.7
20260901072212 78 302 0.9 3.5 0.00 0.00 0.00 64 1016.7
20260901072018 78 274 1.7 3.5 0.00 0.00 0.00 64 1016.6
20260901071809 78 285 2.6 3.5 0.00 0.00 0.00 65 1016.6
20260901071606 78 298 0.9 3.5 0.00 0.00 0.00 65 1016.6
20260901071409 77 203 0.0 4.3 0.00 0.00 0.00 65 1016.6
20260901071209 77 179 0.9 4.3 0.00 0.00 0.00 65 1016.6
20260901071018 77 169 0.9 5.2 0.00 0.00 0.00 65 1016.6
20260901070807 77 165 1.7 5.2 0.00 0.00 0.00 65 1016.6
20260901070604 77 207 2.6 5.2 0.00 0.00 0.00 65 1016.6
20260901070409 77 237 2.6 5.2 0.00 0.00 0.00 65 1016.5
20260901070208 77 224 0.9 5.2 0.00 0.00 0.00 66 1016.5
20260901070041 77 330 0.9 3.5 0.00 0.00 0.00 66 1016.4
20260901065807 77 226 0.9 2.6 0.00 0.00 0.00 67 1016.5
20260901065603 76 226 0.0 2.6 0.00 0.00 0.00 67 1016.4
20260901065407 76 268 0.0 1.7 0.00 0.00 0.00 67 1016.4
20260901065204 76 196 0.0 2.6 0.00 0.00 0.00 68 1016.4
20260901065015 76 196 0.0 2.6 0.00 0.00 0.00 68 1016.4
20260901064806 76 196 0.0 2.6 0.00 0.00 0.00 68 1016.4
20260901064600 76 196 0.9 2.6 0.00 0.00 0.00 68 1016.4
20260901064400 76 196 1.7 3.5 0.00 0.00 0.00 68 1016.4
20260901064209 76 234 1.7 4.3 0.00 0.00 0.00 69 1016.4
20260901064003 76 228 1.7 4.3 0.00 0.00 0.00 69 1016.4
20260901063801 76 203 0.9 4.3 0.00 0.00 0.00 69 1016.4
20260901063600 75 216 1.7 4.3 0.00 0.00 0.00 69 1016.5
20260901063407 75 214 1.7 4.3 0.00 0.00 0.00 69 1016.4
20260901063158 75 221 1.7 5.2 0.00 0.00 0.00 70 1016.4
20260901062956 75 233 1.7 5.2 0.00 0.00 0.00 70 1016.4
20260901062756 75 223 1.7 5.2 0.00 0.00 0.00 70 1016.4
20260901062555 75 219 2.6 6.1 0.00 0.00 0.00 70 1016.4
20260901062356 75 231 2.6 6.1 0.00 0.00 0.00 70 1016.4
20260901062154 75 213 1.7 6.1 0.00 0.00 0.00 71 1016.4
20260901061954 75 186 1.7 6.1 0.00 0.00 0.00 71 1016.3
20260901061754 75 186 2.6 6.1 0.00 0.00 0.00 71 1016.4
20260901061554 75 185 3.5 5.2 0.00 0.00 0.00 71 1016.5
20260901061355 75 176 1.7 6.1 0.00 0.00 0.00 71 1016.4
20260901061150 74 257 2.6 7.8 0.00 0.00 0.00 71 1016.5
20260901060951 74 202 1.7 7.8 0.00 0.00 0.00 71 1016.5
20260901060750 74 203 3.5 7.8 0.00 0.00 0.00 71 1016.4
20260901060543 74 199 3.5 7.8 0.00 0.00 0.00 71 1016.5
20260901060340 74 223 3.5 7.8 0.00 0.00 0.00 72 1016.4
20260901060142 74 245 3.5 5.2 0.00 0.00 0.00 72 1016.4
20260901055940 74 223 1.7 5.2 0.00 0.00 0.00 71 1016.3
20260901055739 74 196 2.6 5.2 0.00 0.00 0.00 72 1016.4
20260901055536 74 193 1.7 3.5 0.00 0.00 0.00 72 1016.4
20260901055337 74 212 1.7 3.5 0.00 0.00 0.00 72 1016.3
20260901055135 74 193 1.7 3.5 0.00 0.00 0.00 71 1016.3
20260901054936 74 206 1.7 4.3 0.00 0.00 0.00 72 1016.4
20260901054734 74 223 1.7 4.3 0.00 0.00 0.00 72 1016.3
20260901054534 74 217 1.7 4.3 0.00 0.00 0.00 71 1016.3
20260901054334 74 220 0.9 4.3 0.00 0.00 0.00 72 1016.3
20260901054141 74 217 2.6 4.3 0.00 0.00 0.00 72 1016.3
20260901053939 74 217 1.7 4.3 0.00 0.00 0.00 72 1016.2
20260901053734 74 162 0.9 4.3 0.00 0.00 0.00 72 1016.2
20260901053534 74 235 0.9 5.2 0.00 0.00 0.00 72 1016.2
20260901053334 74 210 0.9 5.2 0.00 0.00 0.00 72 1016.1
20260901053131 74 216 1.7 6.1 0.00 0.00 0.00 72 1016.1
20260901052930 74 214 2.6 6.1 0.00 0.00 0.00 72 1016.1
20260901052732 74 172 3.5 7.8 0.00 0.00 0.00 72 1016.0
20260901052532 74 195 2.6 7.8 0.00 0.00 0.00 72 1016.0
20260901052330 74 231 3.5 9.6 0.00 0.00 0.00 72 1016.0
20260901052127 74 226 2.6 9.6 0.00 0.00 0.00 72 1016.0
20260901051928 74 197 4.3 9.6 0.00 0.00 0.00 72 1016.0
20260901051729 74 188 3.5 9.6 0.00 0.00 0.00 72 1015.9
20260901051519 74 178 4.3 9.6 0.00 0.00 0.00 72 1016.0
20260901051308 74 231 2.6 8.7 0.00 0.00 0.00 72 1015.8
20260901051107 74 207 3.5 8.7 0.00 0.00 0.00 72 1015.9
20260901050906 74 244 3.5 11.3 0.00 0.00 0.00 72 1015.9
20260901050710 74 233 3.5 11.3 0.00 0.00 0.00 72 1015.9
20260901050523 74 221 4.3 11.3 0.00 0.00 0.00 73 1015.9
20260901050305 74 207 3.5 11.3 0.00 0.00 0.00 73 1015.9
20260901050118 74 178 5.2 11.3 0.00 0.00 0.00 73 1015.9
20260901045905 74 192 5.2 12.2 0.00 0.00 0.00 73 1015.9
20260901045702 74 180 4.3 12.2 0.00 0.00 0.00 73 1015.8
20260901045516 74 158 5.2 12.2 0.00 0.00 0.00 73 1015.8
20260901045306 74 214 4.3 12.2 0.00 0.00 0.00 73 1015.8
20260901045104 74 227 6.1 12.2 0.00 0.00 0.00 73 1015.7
20260901044907 74 204 4.3 10.4 0.00 0.00 0.00 73 1015.6
20260901044704 74 171 5.2 10.4 0.00 0.00 0.00 73 1015.8
20260901044458 74 204 6.1 11.3 0.00 0.00 0.00 73 1015.8